| time (UTC) | temp F | wind direction | speed knots | gust knots | rain 1hr in | rain 24hr in | rain mn in | humidity % | barometer mb |
| 20260905090019 | 80 | 225 | 1.7 | 2.6 | 0.00 | 0.00 | 0.00 | 80 | 994.2 |
| 20260905083019 | 80 | 225 | 0.9 | 1.7 | 0.00 | 0.00 | 0.00 | 80 | 994.3 |
| 20260905080017 | 80 | 225 | 1.7 | 4.3 | 0.00 | 0.00 | 0.00 | 80 | 994.3 |
| 20260905073018 | 80 | 225 | 4.3 | 6.1 | 0.00 | 0.00 | 0.00 | 82 | 994.2 |
| 20260905070017 | 81 | 225 | 4.3 | 5.2 | 0.00 | 0.00 | 0.00 | 78 | 994.4 |
| 20260905063018 | 82 | 158 | 2.6 | 4.3 | 0.00 | 0.00 | 0.00 | 79 | 994.7 |
| 20260905060018 | 79 | 158 | 0.9 | 3.5 | 0.00 | 0.00 | 0.00 | 86 | 994.7 |
| 20260905053038 | 80 | 158 | 2.6 | 5.2 | 0.00 | 0.00 | 0.00 | 84 | 994.4 |
| 20260905050018 | 80 | 158 | 4.3 | 6.1 | 0.00 | 0.00 | 0.00 | 85 | 994.1 |
| 20260905043017 | 81 | 158 | 3.5 | 5.2 | 0.00 | 0.00 | 0.00 | 83 | 994.0 |
| 20260905040018 | 82 | 180 | 3.5 | 5.2 | 0.00 | 0.00 | 0.00 | 83 | 994.1 |
| 20260905033017 | 82 | 180 | 2.6 | 4.3 | 0.00 | 0.00 | 0.00 | 81 | 994.2 |
| 20260905030038 | 83 | 225 | 3.5 | 5.2 | 0.00 | 0.00 | 0.00 | 79 | 993.9 |
| 20260905023018 | 85 | 180 | 3.5 | 4.3 | 0.00 | 0.00 | 0.00 | 76 | 993.6 |
| 20260905020018 | 86 | 203 | 1.7 | 3.5 | 0.00 | 0.00 | 0.00 | 72 | 993.8 |
| 20260905013037 | 88 | 203 | 1.7 | 3.5 | 0.00 | 0.00 | 0.00 | 70 | 993.7 |
| 20260905010017 | 88 | 203 | 1.7 | 2.6 | 0.00 | 0.00 | 0.00 | 69 | 993.6 |
| 20260905003017 | 89 | 203 | 1.7 | 2.6 | 0.00 | 0.00 | 0.00 | 68 | 993.6 |
| 20260905000018 | 90 | 203 | 1.7 | 6.1 | 0.00 | 0.00 | 0.00 | 67 | 993.4 |
| 20260904233017 | 92 | 225 | 4.3 | 8.7 | 0.00 | 0.00 | 0.00 | 63 | 993.2 |
| 20260904230019 | 93 | 203 | 6.1 | 10.4 | 0.00 | 0.00 | 0.00 | 61 | 993.1 |
| 20260904223018 | 93 | 203 | 7.0 | 13.9 | 0.00 | 0.00 | 0.00 | 59 | 993.0 |
| 20260904220017 | 95 | 203 | 6.1 | 12.2 | 0.00 | 0.00 | 0.00 | 59 | 993.2 |
| 20260904213018 | 95 | 203 | 7.0 | 13.0 | 0.00 | 0.00 | 0.00 | 58 | 993.6 |
| 20260904210037 | 95 | 203 | 7.8 | 13.9 | 0.00 | 0.00 | 0.00 | 56 | 993.7 |
| 20260904203019 | 95 | 203 | 7.8 | 13.9 | 0.00 | 0.00 | 0.00 | 57 | 993.8 |
| 20260904200018 | 95 | 203 | 7.0 | 14.8 | 0.00 | 0.00 | 0.00 | 57 | 994.2 |
| 20260904193018 | 95 | 203 | 7.0 | 13.0 | 0.00 | 0.00 | 0.00 | 56 | 994.6 |
| 20260904190016 | 94 | 225 | 7.0 | 13.0 | 0.00 | 0.00 | 0.00 | 59 | 994.8 |
| 20260904183018 | 93 | 225 | 7.0 | 15.6 | 0.00 | 0.00 | 0.00 | 58 | 995.1 |
| 20260904180018 | 93 | 225 | 7.0 | 12.2 | 0.00 | 0.00 | 0.00 | 59 | 995.6 |
| 20260904173018 | 93 | 225 | 5.2 | 12.2 | 0.00 | 0.00 | 0.00 | 60 | 995.8 |
| 20260904170018 | 92 | 248 | 3.5 | 10.4 | 0.00 | 0.00 | 0.00 | 62 | 995.8 |
| 20260904163038 | 91 | 248 | 4.3 | 11.3 | 0.00 | 0.00 | 0.00 | 63 | 995.7 |
| 20260904160018 | 90 | 225 | 4.3 | 11.3 | 0.00 | 0.00 | 0.00 | 65 | 995.7 |
| 20260904153016 | 89 | 225 | 4.3 | 9.6 | 0.00 | 0.00 | 0.00 | 67 | 995.6 |
| 20260904150039 | 87 | 225 | 3.5 | 7.8 | 0.00 | 0.00 | 0.00 | 70 | 995.5 |
| 20260904143019 | 85 | 225 | 3.5 | 7.8 | 0.00 | 0.00 | 0.00 | 72 | 995.2 |
| 20260904140020 | 82 | 225 | 5.2 | 8.7 | 0.00 | 0.00 | 0.00 | 77 | 994.8 |
| 20260904133018 | 80 | 225 | 6.1 | 10.4 | 0.00 | 0.00 | 0.00 | 78 | 994.8 |
| 20260904130018 | 79 | 225 | 5.2 | 8.7 | 0.00 | 0.00 | 0.00 | 80 | 994.8 |
| 20260904123018 | 78 | 225 | 4.3 | 8.7 | 0.00 | 0.00 | 0.00 | 82 | 994.4 |
| 20260904120018 | 77 | 203 | 5.2 | 7.8 | 0.00 | 0.00 | 0.00 | 83 | 994.1 |
| 20260904113018 | 76 | 203 | 4.3 | 7.0 | 0.00 | 0.00 | 0.00 | 84 | 993.9 |
| 20260904110018 | 76 | 180 | 4.3 | 7.0 | 0.00 | 0.00 | 0.00 | 84 | 993.7 |
| 20260904103018 | 76 | 180 | 4.3 | 7.0 | 0.00 | 0.00 | 0.00 | 84 | 993.8 |
| 20260904100036 | 77 | 158 | 4.3 | 7.8 | 0.00 | 0.00 | 0.00 | 84 | 993.7 |
| 20260904093016 | 77 | 158 | 4.3 | 7.8 | 0.00 | 0.00 | 0.00 | 82 | 993.3 |